South Bend, IN

8:12 PM EDT on April 27, 2017 (GMT -0400)
South Bend Regional

Weather History for KSBN - July, 2013

Change the Weather History Date:

Thursday, July 18, 2013

  Actual Average Record
Temperature  
Mean Temperature 83 °F 73 °F  
Max Temperature 92 °F 83 °F 100 °F (1930)
Min Temperature 74 °F 63 °F 49 °F (1937)
Degree Days  
Heating Degree Days 0 0  
Month to date heating degree days 3 0  
Since 1 June heating degree days 40 44  
Since 1 July heating degree days 3 0  
Cooling Degree Days 18 8  
Month to date cooling degree days 163 144  
Year to date cooling degree days 424 365  
Since 1 June cooling degree days 328 309  
Growing Degree Days 32 (Base 50)    
Moisture  
Dew Point 72 °F    
Average Humidity 71    
Maximum Humidity 91    
Minimum Humidity 48    
Precipitation  
Precipitation 0.63 in 0.13 in 3.01 in (1996)
Month to date precipitation 2.07 2.27  
Year to date precipitation 22.80 19.78  
Snow  
Snow 0.00 in 0.00 in 0.00 in (2002)
Month to date snowfall 0.0 0.0  
Since 1 June snowfall 0.0 0.0  
Since 1 July snowfall 0.0 0.0  
Snow Depth 0.00 in    
Sea Level Pressure  
Sea Level Pressure 30.11 in    
Wind  
Wind Speed 5 mph (SSW)    
Max Wind Speed 30 mph    
Max Gust Speed 36 mph    
Visibility 9 miles    
Events Rain , Thunderstorm    
T = Trace of Precipitation, MM = Missing Value Source: NWS Daily Summary

Daily Weather History Graph

Daily Weather History Graph

Search for Another Location

Airport or City:

Trip Planner

Search our weather history database for the weather conditions in past years. The results will help you decide how hot, cold, wet, or windy it might be!

Date:

Astronomy

Jul. 18, 2013 Rise Set
Actual Time 6:26 AM EDT 9:16 PM EDT
Civil Twilight 5:53 AM EDT 9:48 PM EDT
Nautical Twilight 5:12 AM EDT 10:29 PM EDT
Astronomical Twilight 4:24 AM EDT 11:17 PM EDT
Moon 5:11 PM EDT (7/18) 2:17 AM EDT (7/18)
Length of Visible Light 15h 54m
Length of Day
14h 49m
Waxing Gibbous, 77% of the Moon is Illuminated
Jul 18
Waxing Gibbous
Jul 22
Full
Jul 29
Last Quarter
Aug 6
New
Aug 14
First Quarter

Hourly Weather History & Observations

Time (EDT) Temp. Heat Index Dew Point Humidity Pressure Visibility Wind Dir Wind Speed Gust Speed Precip Events Conditions
12:54 AM 79.0 °F - 72.0 °F 79% 30.19 in 10.0 mi West 3.5 mph - N/A   Partly Cloudy
1:54 AM 78.1 °F - 72.0 °F 81% 30.19 in 10.0 mi Calm Calm - N/A   Clear
2:54 AM 75.9 °F - 72.0 °F 87% 30.17 in 10.0 mi Calm Calm - N/A   Clear
3:54 AM 75.9 °F - 71.1 °F 85% 30.17 in 10.0 mi SSW 3.5 mph - N/A   Clear
4:54 AM 75.0 °F - 71.1 °F 87% 30.17 in 9.0 mi SW 3.5 mph - N/A   Clear
5:54 AM 73.9 °F - 71.1 °F 91% 30.16 in 9.0 mi Calm Calm - N/A   Clear
6:54 AM 73.9 °F - 71.1 °F 91% 30.16 in 7.0 mi Calm Calm - N/A   Clear
7:54 AM 75.9 °F - 72.0 °F 87% 30.16 in 9.0 mi SSW 3.5 mph - N/A   Clear
8:54 AM 81.0 °F 85.8 °F 73.0 °F 77% 30.16 in 10.0 mi SW 4.6 mph - N/A   Clear
9:54 AM 84.9 °F 91.4 °F 73.0 °F 67% 30.15 in 10.0 mi WSW 4.6 mph - N/A   Clear
10:54 AM 87.1 °F 95.4 °F 73.9 °F 65% 30.15 in 10.0 mi Variable 3.5 mph - N/A   Clear
11:54 AM 89.1 °F 97.0 °F 73.0 °F 59% 30.14 in 10.0 mi SSW 5.8 mph - N/A   Scattered Clouds
12:52 PM 82.4 °F 87.2 °F 71.6 °F 70% 30.16 in 10.0 mi ESE 8.1 mph - 0.45 in Thunderstorm Thunderstorm
12:54 PM 82.9 °F 87.5 °F 71.1 °F 67% 30.14 in 10.0 mi SE 6.9 mph - 0.45 in Rain , Thunderstorm Light Thunderstorms and Rain
1:12 PM 86.0 °F 93.4 °F 73.4 °F 66% 30.15 in 10.0 mi East 4.6 mph - 0.00 in   Scattered Clouds
1:23 PM 87.8 °F 95.6 °F 73.4 °F 62% 30.15 in 10.0 mi Calm Calm - 0.00 in Thunderstorm Clear
1:45 PM 87.8 °F 93.8 °F 71.6 °F 58% 30.13 in 10.0 mi Calm Calm - 0.00 in Thunderstorm Thunderstorm
1:54 PM 87.1 °F 94.5 °F 73.0 °F 63% 30.11 in 10.0 mi West 4.6 mph - 0.00 in Thunderstorm Thunderstorm
2:02 PM 84.2 °F 90.9 °F 73.4 °F 70% 30.13 in 10.0 mi WNW 13.8 mph 17.3 mph N/A Thunderstorm Thunderstorm
2:11 PM 80.6 °F 84.6 °F 71.6 °F 74% 30.15 in 1.5 mi SSW 27.6 mph 35.7 mph 0.00 in Rain , Thunderstorm Light Thunderstorms and Rain
2:13 PM 78.8 °F - 69.8 °F 74% 30.14 in 0.8 mi South 20.7 mph 35.7 mph 0.05 in Rain , Thunderstorm Heavy Thunderstorms and Rain
2:22 PM 80.6 °F 83.9 °F 69.8 °F 70% 30.14 in 2.0 mi Calm Calm - 0.18 in Rain , Thunderstorm Light Thunderstorms and Rain
2:24 PM 80.6 °F 83.9 °F 69.8 °F 70% 30.14 in 10.0 mi NE 5.8 mph - 0.18 in Rain , Thunderstorm Light Thunderstorms and Rain
2:54 PM 79.0 °F - 72.0 °F 79% 30.11 in 10.0 mi ENE 5.8 mph - 0.18 in Thunderstorm Partly Cloudy
3:03 PM 80.6 °F 84.6 °F 71.6 °F 74% 30.12 in 10.0 mi NE 4.6 mph - N/A   Clear
3:54 PM 84.9 °F 90.7 °F 72.0 °F 65% 30.08 in 10.0 mi SE 3.5 mph - N/A   Clear
4:54 PM 90.0 °F 100.2 °F 75.0 °F 61% 30.04 in 10.0 mi SSW 5.8 mph - N/A   Clear
5:54 PM 91.0 °F 98.2 °F 72.0 °F 53% 30.03 in 10.0 mi SW 11.5 mph - N/A   Clear
6:54 PM 91.0 °F 97.6 °F 71.1 °F 52% 30.00 in 10.0 mi WSW 9.2 mph - N/A   Clear
7:54 PM 89.1 °F 96.0 °F 72.0 °F 57% 30.00 in 10.0 mi SSW 6.9 mph - N/A   Clear
8:54 PM 86.0 °F 93.0 °F 73.0 °F 65% 29.99 in 10.0 mi SSW 5.8 mph - N/A   Clear
9:54 PM 84.0 °F 90.2 °F 73.0 °F 69% 29.99 in 10.0 mi SW 6.9 mph - N/A   Clear
10:54 PM 82.0 °F 87.4 °F 73.0 °F 74% 30.00 in 10.0 mi SW 8.1 mph - N/A   Clear
11:54 PM 80.1 °F 83.8 °F 72.0 °F 76% 29.99 in 10.0 mi SSW 5.8 mph - N/A   Clear